Regional Weather Roundup
Issued by NWS Mt. Holly, NJ

Home | Current Version | Previous Version | Text Only | Print | Product List | Glossary On
Versions: 1 2 3 4 5 6 7 8 9 10 11 12 13 14 15 16 17 18 19 20 21 22 23 24 25 26 27 28 29 30 31 32 33 34 35 36 37 38 39 40 41 42 43 44 45 46 47 48 49 50
229
ASUS41 KPHI 280112
RWRPHI

REGIONAL WEATHER ROUNDUP
NATIONAL WEATHER SERVICE MOUNT HOLLY NJ
900 PM EDT WED JUL 27 2016

NOTE:  "FAIR" INDICATES FEW OR NO CLOUDS BELOW 12,000 FEET WITH NO
SIGNIFICANT WEATHER AND/OR OBSTRUCTIONS TO VISIBILITY.

 * = STATION DOES NOT REPORT PRECIPITATION (E.G. RAIN, SNOW, ETC.)
        OR FOG.

NJZ015>026-280200-
SOUTHERN NEW JERSEY

CITY           SKY/WX    TMP DP  RH WIND       PRES   REMARKS
POMONA         CLEAR     80  72  76 SE3       29.91S
WILDWOOD*      PTCLDY    77  72  84 SE3       29.91S
MILLVILLE      CLEAR     79  74  84 CALM      29.90S
WRIGHTSTOWN    CLEAR     80  74  82 SE3       29.89R
MOUNT HOLLY    CLEAR     81  74  79 SE5       29.90R
TRENTON        CLEAR     83  66  56 CALM      29.90R

$$
NJZ001>014-280200-
NORTHERN NEW JERSEY

CITY           SKY/WX    TMP DP  RH WIND       PRES   REMARKS
SUSSEX         CLEAR     74  66  76 CALM      29.94R
ANDOVER*         N/A     73  64  73 CALM      29.94R
MORRISTOWN     PTCLDY    77  66  69 CALM      29.91R
NEWARK         PTCLDY    83  68  60 S7        29.89R
TETERBORO      MOCLDY    84  66  54 VRB3      29.89R
CALDWELL       PTCLDY    84  62  47 CALM      29.91R
SOMERVILLE     CLEAR     77  67  71 CALM      29.89R
ALLAIRE*       PTCLDY    79  73  82 SE3       29.93R
TOMS RIVER*    PTCLDY    78  75  90 SE5       29.92R

$$
PAZ043-044-047-054-055-060>062-066>071-280200-
EASTERN PENNSYLVANIA

CITY           SKY/WX    TMP DP  RH WIND       PRES   REMARKS
PHILADELPHIA   PTCLDY    89  63  41 NW8       29.90R HX  90
NORTH PHILA    MOCLDY    85  67  54 CALM      29.92R
BLUE BELL*     CLEAR     73  70  88 CALM      29.90S
DOYLESTOWN     CLEAR     76  65  68 CALM      29.92R
QUAKERTOWN*    CLEAR     79  64  61 CALM      29.94R
PERKASIE*      MOCLDY    73  70  88 CALM      29.94S
POTTSTOWN      CLEAR     82  65  56 CALM      29.93S
LANCASTER      CLEAR     76  66  71 SE5       29.92S
COATESVILLE    LGT RAIN  79  64  61 CALM      29.95S
READING        CLEAR     84  62  47 NW3       29.90S
ALLENTOWN      CLEAR     79  59  50 SW5       29.92R
MOUNT POCONO   CLEAR     68  62  81 CALM      30.01R
HAZLETON       CLEAR     68  61  77 CALM      30.02S
LEHIGHTON      FAIR      72  66  83 CALM      29.94R
WILKES BARRE   PTCLDY    78  61  55 S3        29.95R

$$
DEZALL-MDZ008-012-015-019-020-280200-
DELAWARE AND EASTERN MARYLAND

CITY           SKY/WX    TMP DP  RH WIND       PRES   REMARKS
WILMINGTON     CLEAR     84  66  54 NW5       29.91R
DOVER          CLEAR     81  78  92 S2        29.89S
GEORGETOWN     PTCLDY    84  76  76 CALM      29.91R HX  93
EASTON         MOCLDY    84  75  74 CALM      29.94S HX  92
PATUXENT       CLOUDY    82  74  76 SW6       29.89F
OCEAN CITY     PTCLDY    80  77  90 S3        29.90S
WALLOPS ISLAND FAIR      81  77  88 SW6       29.91S
SALISBURY      CLOUDY    82  79  90 CALM      29.89F HX  92

$$
PAZ001-021-NYZ056-072-MDZ011-DCZ001-280200-
OTHER NEARBY LOCATIONS

CITY           SKY/WX    TMP DP  RH WIND       PRES   REMARKS
HARRISBURG     PTCLDY    83  70  64 SE3       29.90S
STATE COLLEGE  CLEAR     81  57  44 CALM      29.96R
WILLIAMSPORT   CLEAR     84  58  40 CALM      29.90R
BINGHAMTON     CLEAR     76  57  51 NE5       29.97S
NEW YORK CITY  CLEAR     83  65  54 CALM      29.93R
BALTIMORE      CLOUDY    85  69  58 SE6       29.89F
WASHINGTON DC  FAIR      88  72  58 S8        29.89F HX  94

$$




USA.gov is the U.S. government's official web portal to all federal, state and local government web resources and services.